Stations météo

réclame
Mon MeteoGroup
South Uist Range, Grande-Bretagne (3023): Température de l'air & dewpoint: 14.04.2018 21:00:00 - 20.04.2018 21:00:00 (BST)South Uist Range, Grande-Bretagne (3023): Température de l'air -20cm & Température de l'air -100cm: 14.04.2018 21:00:00 - 20.04.2018 21:00:00 (BST)South Uist Range, Grande-Bretagne (3023): Vitesse du vent & gusts: 14.04.2018 21:00:00 - 20.04.2018 21:00:00 (BST)South Uist Range, Grande-Bretagne (3023): Direction du vent: 14.04.2018 21:00:00 - 20.04.2018 21:00:00 (BST)South Uist Range, Grande-Bretagne (3023): reduced air pressure: 14.04.2018 21:00:00 - 20.04.2018 21:00:00 (BST)South Uist Range, Grande-Bretagne (3023): visibility: 14.04.2018 21:00:00 - 20.04.2018 21:00:00 (BST)South Uist Range, Grande-Bretagne (3023): Quantités de précipitations: 14.04.2018 21:00:00 - 20.04.2018 21:00:00 (BST)
Date & Time tt [°C] td [°C] tt -20cm [°C] tt -100cm [°C] ff [km/h] ff [knt] fx [km/h] fx [knt] dd ppp [hPa] vv [km] rr [mm]
20.04.2018 21:00:00 - - - - - - - - - - - -
20.04.2018 20:00:00 9,4 7,7 - - 21 11 - - SW 1021,2 12 0,0
20.04.2018 19:00:00 10,2 8,2 - - 22 12 - - SW 1021,2 11 0,0
20.04.2018 18:00:00 10,4 7,9 - - 24 13 - - WSW 1021,1 12 0,0
20.04.2018 17:00:00 10,8 8,6 - - 28 15 - - WSW 1020,9 13 0,0
20.04.2018 16:00:00 10,8 8,7 - - 28 15 - - WSW 1020,6 16 0,0
20.04.2018 15:00:00 10,8 8,5 - - 31 17 - - WSW 1020,3 16 0,0
20.04.2018 14:00:00 10,5 8,3 - - 37 20 48 26 SW 1019,9 10 0,0
20.04.2018 13:00:00 10,6 9,0 - - 35 19 46 25 SW 1019,4 7 0,0
20.04.2018 12:00:00 10,8 9,8 - - 37 20 50 27 SW 1019,1 8 0,2
20.04.2018 11:00:00 10,4 9,2 - - 37 20 48 26 SSW 1018,9 6 0,0
20.04.2018 10:00:00 10,2 9,2 9,2 7,4 35 19 - - SSW 1018,7 9 0,0
20.04.2018 09:00:00 9,8 9,0 - - 35 19 - - SW 1018,5 6 0,0
20.04.2018 08:00:00 9,1 8,6 - - 35 19 48 26 SW 1018,5 6 0,0
20.04.2018 07:00:00 9,1 8,5 - - 39 21 52 28 SSW 1018,2 7 1,4
20.04.2018 06:00:00 9,0 8,5 - - 37 20 50 27 SSW 1018,3 5 1,6
20.04.2018 05:00:00 9,2 8,2 - - 31 17 - - SSW 1018,6 9 0,0
20.04.2018 04:00:00 9,2 8,4 - - 29 16 - - SSW 1019,3 7 0,0
20.04.2018 03:00:00 9,3 8,2 - - 28 15 - - SSW 1019,6 8 0,0
20.04.2018 02:00:00 9,4 8,3 - - 26 14 - - SSW 1020,0 9 0,0
20.04.2018 01:00:00 9,3 8,5 - - 28 15 - - SSW 1020,2 7 0,0
20.04.2018 00:00:00 8,7 8,1 - - 24 13 - - S 1020,3 7 0,0
19.04.2018 23:00:00 8,3 7,6 - - 22 12 - - SSW 1020,4 5 0,0
19.04.2018 22:00:00 8,9 8,1 - - 28 15 - - SSW 1020,5 6 0,0
19.04.2018 21:00:00 9,2 8,1 - - 31 17 - - SW 1020,4 8 0,0
19.04.2018 20:00:00 9,8 8,3 - - 34 18 46 25 SW 1019,9 7 0,0
19.04.2018 19:00:00 10,5 8,5 - - 37 20 - - SSW 1019,7 8 0,0
19.04.2018 18:00:00 11,0 8,5 - - 34 18 - - SSW 1019,6 11 0,0
19.04.2018 17:00:00 11,3 9,1 - - 35 19 52 28 SSW 1019,6 14 0,0
19.04.2018 16:00:00 12,1 9,6 - - 41 22 57 31 SSW 1019,3 19 0,0
19.04.2018 15:00:00 12,7 9,6 - - 44 24 55 30 SSW 1018,9 17 0,0
19.04.2018 14:00:00 13,1 9,8 - - 44 24 59 32 SSW 1018,5 22 0,0
19.04.2018 13:00:00 12,9 9,4 - - 42 23 54 29 SSW 1018,3 21 0,0
19.04.2018 12:00:00 12,5 10,1 - - 37 20 52 28 SSW 1018,2 19 0,0
19.04.2018 11:00:00 11,5 9,6 - - 37 20 46 25 SSW 1017,7 11 0,0
19.04.2018 10:00:00 11,6 9,8 9,0 7,2 34 18 - - SSW 1017,0 10 0,0
19.04.2018 09:00:00 10,9 9,3 - - 28 15 - - SSW 1016,6 12 0,0
19.04.2018 08:00:00 10,0 8,7 - - 28 15 - - SSW 1016,1 7 -
19.04.2018 07:00:00 9,8 8,8 - - 28 15 - - SSW 1015,5 12 -
19.04.2018 06:00:00 9,5 8,8 - - 26 14 - - SSW 1014,9 11 -
19.04.2018 05:00:00 10,2 9,2 - - 29 16 46 25 SSW 1014,6 14 -
19.04.2018 04:00:00 10,4 9,1 - - 35 19 46 25 SSW 1014,5 11 -
19.04.2018 03:00:00 10,2 9,0 - - 34 18 55 30 SSW 1014,2 12 -
19.04.2018 02:00:00 10,8 9,2 - - 39 21 54 29 SSW 1013,8 13 0,0
19.04.2018 01:00:00 10,7 9,8 - - 41 22 55 30 S 1013,5 19 0,0
19.04.2018 00:00:00 10,6 10,1 - - 39 21 57 31 S 1012,7 7 2,0
18.04.2018 23:00:00 10,6 9,7 - - 50 27 89 48 SSW 1012,3 3,7 2,0
18.04.2018 22:00:00 13,6 9,5 - - 63 34 96 52 S 1010,2 13 0,0
18.04.2018 21:00:00 13,5 9,4 - - 68 37 94 51 SSE 1009,8 16 0,0
18.04.2018 20:00:00 13,1 9,2 - - 68 37 96 52 SSE 1010,1 14 0,0
18.04.2018 19:00:00 13,1 9,6 - - 65 35 83 45 SSE 1010,1 12 0,0
18.04.2018 18:00:00 12,2 10,1 - - 52 28 76 41 SSE 1011,6 21 0,0
18.04.2018 17:00:00 11,4 9,8 - - 48 26 65 35 SSE 1013,0 12 0,0
18.04.2018 16:00:00 11,6 9,0 - - 46 25 63 34 SSE 1014,2 28 0,0
18.04.2018 15:00:00 11,6 9,1 - - 42 23 59 32 SSE 1014,7 35 0,2
18.04.2018 14:00:00 11,7 9,4 - - 37 20 55 30 S 1015,1 11 0,0
18.04.2018 13:00:00 12,7 9,5 - - 41 22 63 34 S 1015,0 19 0,0
18.04.2018 12:00:00 12,2 9,2 - - 44 24 63 34 S 1014,5 16 0,0
18.04.2018 11:00:00 12,1 9,0 - - 44 24 65 35 S 1014,1 14 0,0
18.04.2018 10:00:00 11,5 8,6 8,7 7,2 44 24 65 35 S 1013,3 17 0,0
18.04.2018 09:00:00 11,4 8,4 - - 48 26 63 34 S 1012,8 10 0,0
18.04.2018 08:00:00 10,8 8,1 - - 46 25 67 36 S 1011,8 10 0,0
18.04.2018 07:00:00 10,7 8,0 - - 44 24 63 34 S 1011,2 8 0,0
18.04.2018 06:00:00 10,3 8,0 - - 42 23 59 32 S 1010,9 9 0,0
18.04.2018 05:00:00 10,4 8,0 - - 41 22 59 32 S 1010,0 11 0,0
18.04.2018 04:00:00 10,3 8,0 - - 39 21 55 30 S 1009,4 8 0,0
18.04.2018 03:00:00 10,5 7,8 - - 37 20 55 30 S 1009,3 9 0,0
18.04.2018 02:00:00 10,3 7,4 - - 37 20 50 27 S 1008,3 10 0,0
18.04.2018 01:00:00 10,3 7,6 - - 35 19 52 28 S 1008,2 9 0,0
18.04.2018 00:00:00 10,0 7,6 - - 37 20 54 29 S 1007,3 7 0,0
17.04.2018 23:00:00 10,5 7,8 - - 42 23 59 32 S 1006,1 8 0,0
17.04.2018 22:00:00 10,5 7,7 - - 39 21 61 33 SSW 1005,1 8 0,0
17.04.2018 21:00:00 11,0 7,9 - - 50 27 72 39 SSW 1003,7 6 0,0
17.04.2018 20:00:00 11,4 7,8 - - 50 27 68 37 SSW 1002,6 6 0,0
17.04.2018 19:00:00 12,3 8,2 - - 54 29 72 39 SSW 1001,3 8 0,0
17.04.2018 18:00:00 12,2 8,1 - - 50 27 72 39 S 1000,4 9 0,0
17.04.2018 17:00:00 13,0 8,5 - - 54 29 76 41 S 999,6 10 0,0
17.04.2018 16:00:00 13,4 9,5 - - 54 29 76 41 S 998,7 14 0,0
17.04.2018 15:00:00 13,1 9,6 - - 54 29 85 46 S 998,3 10 0,0
17.04.2018 14:00:00 12,7 9,0 - - 54 29 85 46 S 997,5 25 0,0
17.04.2018 13:00:00 13,5 8,4 - - 61 33 87 47 S 996,6 14 0,0
17.04.2018 12:00:00 12,2 8,1 - - 57 31 81 44 S 996,3 18 0,0
17.04.2018 11:00:00 11,8 8,3 - - 55 30 78 42 S 995,6 23 0,0
17.04.2018 10:00:00 11,7 8,6 8,5 7,0 52 28 70 38 S 995,1 15 0,0
17.04.2018 09:00:00 10,8 8,3 - - 44 24 61 33 S 994,5 30 0,0
17.04.2018 08:00:00 9,4 8,1 - - 42 23 68 37 S 993,6 12 0,4
17.04.2018 07:00:00 9,5 8,6 - - 50 27 87 47 S 993,0 7 1,2
17.04.2018 06:00:00 9,5 8,4 - - 65 35 93 50 S 992,1 2,9 1,6
17.04.2018 05:00:00 9,5 8,1 - - 70 38 100 54 SSE 992,0 5 1,0
17.04.2018 04:00:00 9,2 7,9 - - 72 39 119 64 SSE 992,7 4,6 1,2
17.04.2018 03:00:00 9,1 7,8 - - 76 41 106 57 SSE 993,6 3,7 1,4
17.04.2018 02:00:00 9,1 7,8 - - 76 41 104 56 SSE 994,7 3,8 0,0
17.04.2018 01:00:00 9,3 7,6 - - 78 42 107 58 SSE 995,5 9 0,2
17.04.2018 00:00:00 9,1 7,7 - - 78 42 107 58 SSE 995,5 6 1,0
16.04.2018 23:00:00 8,7 7,5 - - 76 41 104 56 SSE 996,1 4,0 0,8
16.04.2018 22:00:00 8,7 7,4 - - 65 35 96 52 SSE 996,7 10 0,2
16.04.2018 21:00:00 8,9 7,6 - - 67 36 91 49 SSE 997,6 5 0,6
16.04.2018 20:00:00 9,0 6,8 - - 68 37 100 54 SSE 998,0 5 0,8
16.04.2018 19:00:00 9,1 6,7 - - 67 36 87 47 SSE 997,7 7 0,2
16.04.2018 18:00:00 10,0 5,4 - - 63 34 83 45 SSE 998,4 11 0,0
16.04.2018 17:00:00 10,6 5,3 - - 61 33 80 43 SSE 999,4 14 0,0
16.04.2018 16:00:00 11,0 5,4 - - 52 28 72 39 SSE 1000,1 30 0,0
16.04.2018 15:00:00 11,0 5,7 - - 46 25 67 36 SSE 1000,5 26 0,0
16.04.2018 14:00:00 11,1 5,3 - - 46 25 59 32 S 1000,7 30 0,0
16.04.2018 13:00:00 11,1 7,3 - - 39 21 54 29 S 1000,9 25 0,0
16.04.2018 12:00:00 10,8 7,3 - - 35 19 50 27 S 1000,7 16 0,0
16.04.2018 11:00:00 10,6 7,0 - - 35 19 48 26 SSW 1000,4 12 0,0
16.04.2018 10:00:00 9,5 7,6 8,5 6,9 37 20 46 25 SSW 999,9 9 0,0
16.04.2018 09:00:00 9,2 8,7 - - 28 15 - - S 999,1 2,3 0,2
16.04.2018 08:00:00 8,9 8,3 - - 34 18 48 26 S 998,4 3,7 0,0
16.04.2018 07:00:00 8,7 7,9 - - 37 20 55 30 S 997,8 2,4 0,6
16.04.2018 06:00:00 9,1 7,8 - - 42 23 65 35 SSE 997,3 5 0,0
16.04.2018 05:00:00 9,1 7,8 - - 44 24 63 34 SSE 997,2 10 0,0
16.04.2018 04:00:00 9,8 7,7 - - 44 24 61 33 SE 997,2 5 0,0
16.04.2018 03:00:00 10,3 7,0 - - 41 22 67 36 SSE 997,5 30 0,0
16.04.2018 02:00:00 10,6 7,1 - - 41 22 61 33 SE 997,8 29 0,0
16.04.2018 01:00:00 10,5 6,9 - - 39 21 55 30 SE 998,0 28 0,0
16.04.2018 00:00:00 10,6 6,7 - - 35 19 48 26 SE 998,3 40 0,0
15.04.2018 23:00:00 9,1 7,1 - - 29 16 48 26 ESE 998,8 18 0,0
15.04.2018 22:00:00 9,9 7,5 - - 26 14 - - ESE 999,4 50 0,0
15.04.2018 21:00:00 9,3 7,7 - - 28 15 - - ESE 999,9 45 0,0
15.04.2018 20:00:00 10,3 7,9 - - 28 15 54 29 ESE 1000,2 35 0,2
15.04.2018 19:00:00 10,6 8,2 - - 37 20 52 28 SE 1000,3 11 0,8
15.04.2018 18:00:00 11,0 9,2 - - 35 19 48 26 SSE 1000,9 6 0,8
15.04.2018 17:00:00 11,1 8,7 - - 35 19 57 31 SSE 1001,5 11 0,0
15.04.2018 16:00:00 14,6 6,7 - - 39 21 57 31 SE 1001,7 35 0,0
15.04.2018 15:00:00 14,9 5,8 - - 37 20 57 31 SE 1002,4 50 0,0
15.04.2018 14:00:00 15,1 5,5 - - 41 22 52 28 SE 1003,1 30 0,0
15.04.2018 13:00:00 14,4 6,9 - - 31 17 52 28 ESE 1003,8 30 0,0
15.04.2018 12:00:00 12,8 6,8 - - 34 18 50 27 ESE 1004,6 50 0,0
15.04.2018 11:00:00 12,3 6,5 - - 37 20 54 29 ESE 1005,0 29 0,0
15.04.2018 10:00:00 11,6 6,3 8,2 6,7 37 20 50 27 ESE 1005,4 45 0,0
15.04.2018 09:00:00 10,7 5,3 - - 35 19 46 25 ESE 1005,8 26 0,0
15.04.2018 08:00:00 10,2 4,9 - - 35 19 - - ESE 1006,6 30 0,0
15.04.2018 07:00:00 8,7 5,8 - - 26 14 - - E 1007,2 30 0,0
15.04.2018 06:00:00 9,0 5,8 - - 24 13 - - E 1007,5 50 0,0
15.04.2018 05:00:00 8,8 4,9 - - 24 13 - - ESE 1008,2 35 0,0
15.04.2018 04:00:00 9,0 5,1 - - 29 16 - - ESE 1008,8 21 0,0
15.04.2018 03:00:00 8,9 5,3 - - 31 17 48 26 SSE 1009,6 40 0,0
15.04.2018 02:00:00 9,4 5,9 - - 41 22 55 30 SSE 1010,1 30 0,0
15.04.2018 01:00:00 9,5 5,8 - - 42 23 55 30 SSE 1010,4 29 0,0
15.04.2018 00:00:00 9,9 6,1 - - 39 21 59 32 SSE 1010,5 21 0,0
14.04.2018 23:00:00 10,0 6,2 - - 42 23 61 33 SSE 1010,8 20 0,0
14.04.2018 22:00:00 10,1 7,1 - - 41 22 57 31 SSE 1010,8 16 0,0
14.04.2018 21:00:00 10,1 7,4 - - 41 22 54 29 SSE 1010,9 14 0,0

tt = Température de l'air
td = dewpoint
tt -20cm = Température de l'air -20cm
tt -100cm = Température de l'air -100cm
ff = Vitesse du vent
fx = gusts
dd = Direction du vent
ppp = reduced air pressure
vv = visibility
rr = Quantités de précipitations

stations d'obs. à proximité